Location: Mentone
(34.5413°N, 85.5351°W)
Time: 10:11:03
(UTC-05:00)

Uosat F - Visible Passes

Search period start: 18 April 2015 00:00
Search period end: 28 April 2015 00:00
Orbit: 750 x 762 km, 98.7° (Epoch: 18 April)

Date Brightness Start Highest point End Pass type
(mag) Time Alt. Az. Time Alt. Az. Time Alt. Az.
18 Apr 12.1 05:12:30 10° NNE 05:17:20 49° E 05:22:10 10° S visible
19 Apr 13.7 04:34:21 10° NE 04:37:46 19° E 04:41:21 10° SE visible
20 Apr 11.3 05:32:32 10° NNE 05:37:34 80° ESE 05:42:34 10° S visible
21 Apr 13.0 04:53:47 10° NE 04:58:08 30° E 05:02:33 10° SSE visible
22 Apr 14.0 04:16:58 10° ENE 04:18:24 11° E 04:20:12 10° ESE visible
23 Apr 12.1 05:13:35 10° NNE 05:18:26 49° E 05:23:16 10° S visible
24 Apr 13.7 04:35:25 10° NE 04:38:51 19° E 04:42:28 10° SE visible
26 Apr 13.0 04:54:51 10° NE 04:59:13 31° E 05:03:39 10° SSE visible
27 Apr 14.0 04:17:58 10° ENE 04:19:29 12° E 04:21:22 10° ESE visible
